NIMBUS 2 DEB, 28203

Orbit data source: Space-Track

NIMBUS 2 DEB, 28203 is space debris in SSO originally from a launch on Sun, 15 May 1966 UTC launched from the Air Force Western Test Range (AFWTR). Debris objects in space refer to the collection of defunct objects orbiting the Earth. Examples of debris include non-operational satellites, rocket bodies, and fragments generated from explosions, collisions, or faulty payload assembly.

Loading next visibility...
Identifier
28203, 1966-040R
Orbit
SSO
Country
Flag of USUS
Related business
Manufacturer
Unknown
Mission
Spacecraft
Bus & Motor
Unknown
Mass
Unknown
Launch date (UTC)
1966-05-15 (60 years ago)
Launch vehicle
Unknown
Launch site
Air Force Western Test Range (AFWTR)
Object type
Payload
Rocket body
Debris
Shape & HBR
Unknown shape, 0.1 m
Radar Cross Section
Small (<0.1 m²)

Expand to show TLE details & history
Last TLE update: 17 hours ago

TLE from 17 hours ago
0 NIMBUS 2 DEB
1 28203U 66040R   26130.22829931  .00001431  00000-0  22724-2 0  9997
2 28203 100.3324  18.1597 0052042  16.0055 110.3513 13.50908605179728
Epoch: 2026-05-10T05:28Z
TLE epoch observation values (Epoch: 2026-05-10T05:28:45.060Z)
Latitude
51.96393°
Longitude
-98.65611°
Altitude
1,090.866 km
Speed
7.305 km/s
True Right ascension
14h 06m 15s
True Declination
51° 48' 16"
Sunlit
Object was in daylight at epoch
Visualization orbit readout
Latitude
Unknown
Longitude
Unknown
Altitude
Unknown
Speed
Unknown
Apparent Right ascension
Unknown
Apparent Declination
Unknown
Sunlit
N/A
Visualization observer readout
Local Sidereal Time
06:57:52
Azimuth
Unknown
Elevation
Unknown
Doppler factor
Unknown
Orbital elements
Apogee altitude
1,104.993 km
Perigee altitude
1,027.509 km
Semi-major axis
7,444.388 km
Eccentricity
0.0052
Inclination
100.3324°
RAAN
18.1597°
Arg. of periapsis
16.0055°
True anomaly
110.90916°
Mean anomaly
110.3513°
Eccentric anomaly
110.63036°
Mean motion
3.37909 °/min
Orbital period
106.54 mins
BSTAR
0.0022724
Loading maneuver chart data...
Computing Atmospheric mass density...
Loading historical data...
Loading historical data...
Loading historical data...
Loading historical data...
Loading historical data...
Loading historical data...
Loading historical data...

Documentation

Showing up to 5 results
|